Flag for Oman Weather past 2 weeks in Salalah, Oman

Now
75 °F

Mild.


Feels Like: 74 °F
Forecast: 79 / 83 °F
Wind: 1 mph from East

Location: Salalah Airport

Current Time: Aug 2, 2014 at 2:36:34 AM

Latest Report: Aug 2, 2014 at 1:50 AM


Visibility: 2 mi

Pressure: 29.62 "Hg

Humidity: 94%

Dew point: 73 °F

Location of SalalahLocation

Historic Weather in Salalah — Graph

°F

Salalah temperature yesterday

Maximum temperature yesterday: 81 °F (at 1:50 PM)
Minimum temperature yesterday: 75 °F (at 3:50 AM)
Average temperature yesterday: 77 °F

Past Weeks' High & Low Weather Summary

 TemperatureHumidityPressure
High82 °F (Jul 18, 1:50 PM)94% (Jul 18, 8:50 PM)29.77 "Hg (Jul 18, 8:50 PM)
Low75 °F (Jul 20, 1:50 AM)74% (Jul 18, 1:50 PM)29.53 "Hg (Jul 18, 3:50 PM)
Average77 °F90%29.64 "Hg
* Reported Jul 18 12:50 AM — Aug 2 12:50 AM, Salalah, Weather by CustomWeather, © 2014

Note: Actual official high and low records may vary slightly from our data, if they occured in-between our weather recording intervals... More about our weather records

Advertising

Salalah weather history for previous 24 hours

 ConditionsComfort  
Time TempWeatherWind HumidityBarometerVisibility
12:50 AM
Aug 2
75 °FMild.3 mph94%29.62 "Hg1 mi
11:50 PM
Aug 1
75 °FDrizzle. Overcast.6 mph94%29.65 "Hg1 mi
10:50 PM75 °FDrizzle. Overcast.6 mph94%29.65 "Hg1 mi
9:50 PM75 °FOvercast.5 mph94%29.65 "Hg1 mi
8:50 PM77 °FDrizzle. Overcast.3 mph89%29.62 "Hg1 mi
7:50 PM77 °FDrizzle. Overcast.5 mph89%29.62 "Hg1 mi
6:50 PM75 °FMild.3 mph94%29.59 "Hg2 mi
5:50 PM77 °FDrizzle. Cloudy.5 mph89%29.59 "Hg1 mi
4:50 PM77 °FDrizzle. Cloudy.5 mph89%29.56 "Hg1 mi
3:50 PM77 °FDrizzle. Cloudy.8 mph89%29.59 "Hg1 mi
2:50 PM79 °FWarm.8 mph84%29.59 "Hg3 mi
1:50 PM81 °FCloudy.8 mph79%29.62 "Hg2 mi
12:50 PM79 °FWarm.7 mph89%29.62 "Hg3 mi
11:50 AM77 °FWarm.6 mph94%29.65 "Hg2 mi
10:50 AM77 °FFog.5 mph94%29.68 "Hg1 mi
9:50 AM77 °FWarm.7 mph94%29.68 "Hg2 mi
8:50 AM75 °FDrizzle. Cloudy.5 mph94%29.65 "Hg1 mi
7:50 AM75 °FDrizzle. Cloudy.5 mph94%29.65 "Hg1 mi
6:50 AM75 °FDrizzle. Cloudy.5 mph94%29.65 "Hg1 mi
5:50 AM75 °FDrizzle. Overcast.6 mph94%29.62 "Hg1 mi
4:50 AM75 °FDrizzle. Overcast.6 mph94%29.62 "Hg1 mi
3:50 AM75 °FDrizzle. Overcast.8 mph94%29.62 "Hg1 mi
2:50 AM77 °FDrizzle. Overcast.6 mph89%29.62 "Hg1 mi
Weather by CustomWeather, © 2014

See weather overviewHow to use our weather pages